Date String (YYYY-MM-DD hh:mm:ss) UTC,Instrument flags,Ambient pressure (hPa),Sample flow (lpm),Bypass flow (lpm),Sample temperature (°C),Ambient temperature (°C),ASC tube jacket temperature (°C),LED temperature (°C),Box temperature (°C),Sample RH (%),Span deviation,Mass concentration (μg/m³),Mass concentration (μg/m³),Mass concentration (μg/m³)
DateTimeUTC,F1_M11,P_M11,Q1_M11,Q2_M11,T1_M11,T2_M11,T3_M11,T4_M11,T5_M11,U1_M11,ZSPAN_M11,X0_M11,X2_M11,X1_M11
2022-11-21 01:00:00,,0828.1,5.00,0.00,26.2,24.4,00.0,35.2,28.0,06.4,0000.0,0007.84,0005.03,0004.85
2022-11-21 01:01:00,,0828.1,5.00,0.00,26.1,24.3,00.0,35.2,27.9,06.4,0000.0,0007.65,0004.99,0004.83
2022-11-21 01:02:00,,0828.1,4.99,0.00,26.1,24.3,00.0,35.2,27.8,06.4,0000.0,0007.66,0004.98,0004.81
2022-11-21 01:03:00,,0828.2,4.99,0.00,26.1,24.3,00.0,35.2,27.9,06.4,0000.0,0007.70,0004.97,0004.80
2022-11-21 01:04:00,,0828.2,5.02,0.00,26.1,24.3,00.0,35.2,27.9,06.5,0000.0,0007.83,0004.99,0004.79
2022-11-21 01:05:00,,0828.2,4.99,0.00,26.1,24.3,00.0,35.1,27.9,06.5,0000.0,0008.09,0005.00,0004.79
2022-11-21 01:06:00,,0828.3,4.99,0.00,26.1,24.4,00.0,35.1,27.9,06.5,0000.0,0008.23,0005.03,0004.82
2022-11-21 01:07:00,,0828.2,5.00,0.00,26.1,24.4,00.0,35.1,27.9,06.5,0000.0,0007.87,0005.06,0004.84
2022-11-21 01:08:00,,0828.2,5.00,0.00,26.0,24.4,00.0,35.1,27.8,06.5,0000.0,0007.86,0005.11,0004.88
2022-11-21 01:09:00,,0828.3,5.01,0.00,26.0,24.4,00.0,35.1,27.8,06.5,0000.0,0008.01,0005.19,0004.92
2022-11-21 01:10:00,,0828.2,5.00,0.00,26.0,24.3,00.0,35.1,27.8,06.6,0000.0,0008.19,0005.26,0004.98
2022-11-21 01:11:00,,0828.2,4.99,0.00,26.0,24.3,00.0,35.1,27.8,06.6,0000.0,0008.34,0005.35,0005.04
2022-11-21 01:12:00,,0828.2,4.99,0.00,26.0,24.3,00.0,35.0,27.8,06.6,0000.0,0008.40,0005.40,0005.10
2022-11-21 01:13:00,,0828.2,5.01,0.00,26.0,24.3,00.0,35.0,27.8,06.6,0000.0,0008.44,0005.46,0005.14
2022-11-21 01:14:00,,0828.2,5.00,0.00,26.0,24.2,00.0,35.0,27.7,06.6,0000.0,0008.45,0005.51,0005.20
2022-11-21 01:15:00,,0828.3,5.00,0.00,26.0,24.2,00.0,35.0,27.7,06.6,0000.0,0008.41,0005.55,0005.23
2022-11-21 01:16:00,,0828.2,5.01,0.00,25.9,24.1,00.0,35.0,27.7,06.6,0000.0,0008.24,0005.60,0005.27
2022-11-21 01:17:00,,0828.2,5.00,0.00,25.9,24.1,00.0,35.0,27.7,06.6,0000.0,0008.22,0005.64,0005.31
2022-11-21 01:18:00,,0828.2,5.00,0.00,25.9,24.1,00.0,34.9,27.7,06.6,0000.0,0008.25,0005.67,0005.33
2022-11-21 01:19:00,,0828.2,4.99,0.00,25.9,24.1,00.0,34.9,27.7,06.6,0000.0,0008.24,0005.67,0005.33
2022-11-21 01:20:00,,0828.2,4.99,0.00,25.9,24.1,00.0,34.9,27.7,06.6,0000.0,0008.24,0005.64,0005.32
2022-11-21 01:21:00,,0828.2,5.00,0.00,25.9,24.1,00.0,34.9,27.7,06.6,0000.0,0008.18,0005.63,0005.31
2022-11-21 01:22:00,,0828.2,5.01,0.00,25.8,24.1,00.0,34.9,27.7,06.6,0000.0,0008.10,0005.59,0005.29
2022-11-21 01:23:00,,0828.2,5.00,0.00,25.8,24.0,00.0,34.9,27.6,06.6,0000.0,0008.14,0005.59,0005.27
2022-11-21 01:24:00,,0828.3,5.00,0.00,25.8,24.0,00.0,34.8,27.5,06.6,0000.0,0008.16,0005.58,0005.26
2022-11-21 01:25:00,,0828.2,5.00,0.00,25.8,24.0,00.0,34.8,27.5,06.6,0000.0,0008.19,0005.56,0005.22
2022-11-21 01:26:00,,0828.2,5.00,0.00,25.7,24.0,00.0,34.8,27.5,06.6,0000.0,0008.16,0005.52,0005.20
2022-11-21 01:27:00,,0828.2,5.00,0.00,25.7,23.9,00.0,34.8,27.5,06.6,0000.0,0008.10,0005.48,0005.17
2022-11-21 01:28:00,,0828.2,5.01,0.00,25.7,23.9,00.0,34.8,27.5,06.6,0000.0,0008.12,0005.46,0005.13
2022-11-21 01:29:00,,0828.3,5.00,0.00,25.7,23.9,00.0,34.8,27.5,06.6,0000.0,0008.06,0005.38,0005.06
2022-11-21 01:30:00,,0828.2,5.00,0.00,25.7,23.8,00.0,34.7,27.4,06.6,0000.0,0007.93,0005.25,0004.96
2022-11-21 01:31:00,,0828.3,5.00,0.00,25.6,23.8,00.0,34.7,27.4,06.6,0000.0,0007.86,0005.17,0004.86
2022-11-21 01:32:00,,0828.3,4.99,0.00,25.6,23.8,00.0,34.7,27.4,06.6,0000.0,0007.77,0005.09,0004.77
2022-11-21 01:33:00,,0828.3,5.00,0.00,25.6,23.7,00.0,34.7,27.3,06.5,0000.0,0007.74,0004.98,0004.65
2022-11-21 01:34:00,,0828.3,5.00,0.00,25.6,23.7,00.0,34.7,27.3,06.5,0000.0,0007.61,0004.85,0004.54
2022-11-21 01:35:00,,0828.3,5.01,0.00,25.5,23.7,00.0,34.7,27.3,06.4,0000.0,0007.44,0004.71,0004.41
2022-11-21 01:36:00,,0828.2,5.01,0.00,25.5,23.7,00.0,34.6,27.3,06.4,0000.0,0007.28,0004.59,0004.29
2022-11-21 01:37:00,,0828.2,4.99,0.00,25.5,23.6,00.0,34.6,27.3,06.4,0000.0,0007.04,0004.47,0004.20
2022-11-21 01:38:00,,0828.3,5.00,0.00,25.5,23.6,00.0,34.6,27.2,06.3,0000.0,0006.83,0004.37,0004.09
2022-11-21 01:39:00,,0828.3,4.99,0.00,25.5,23.6,00.0,34.6,27.2,06.3,0000.0,0006.45,0004.23,0003.97
2022-11-21 01:40:00,,0828.3,5.00,0.00,25.4,23.6,00.0,34.5,27.2,06.3,0000.0,0006.38,0004.18,0003.90
2022-11-21 01:41:00,,0828.2,5.00,0.00,25.4,23.6,00.0,34.5,27.1,06.3,0000.0,0006.31,0004.16,0003.88
2022-11-21 01:42:00,,0828.5,5.00,0.00,25.4,23.6,00.0,34.5,27.0,06.3,0000.0,0006.08,0004.10,0003.84
2022-11-21 01:43:00,,0828.2,5.00,0.00,25.3,23.5,00.0,34.5,27.0,06.3,0000.0,0005.95,0004.05,0003.81
2022-11-21 01:44:00,,0828.2,5.00,0.00,25.3,23.5,00.0,34.4,27.1,06.3,0000.0,0005.82,0004.06,0003.82
2022-11-21 01:45:00,,0828.2,5.00,0.00,25.3,23.5,00.0,34.4,27.1,06.3,0000.0,0005.88,0004.08,0003.84
2022-11-21 01:46:00,,0828.2,5.00,0.00,25.3,23.5,00.0,34.4,27.1,06.3,0000.0,0006.47,0004.18,0003.88
2022-11-21 01:47:00,,0828.2,5.00,0.00,25.3,23.5,00.0,34.4,27.1,06.3,0000.0,0007.04,0004.20,0003.91
2022-11-21 01:48:00,,0828.2,5.00,0.00,25.3,23.5,00.0,34.4,27.0,06.3,0000.0,0007.13,0004.22,0003.93
2022-11-21 01:49:00,,0828.2,5.00,0.00,25.2,23.5,00.0,34.3,26.9,06.3,0000.0,0007.20,0004.23,0003.94
2022-11-21 01:50:00,,0828.3,5.00,0.00,25.2,23.4,00.0,34.3,26.9,06.4,0000.0,0007.30,0004.28,0004.00
2022-11-21 01:51:00,,0828.2,5.00,0.00,25.2,23.4,00.0,34.3,26.9,06.4,0000.0,0007.46,0004.38,0004.10
2022-11-21 01:52:00,,0828.2,5.00,0.00,25.2,23.4,00.0,34.3,26.9,06.4,0000.0,0007.52,0004.44,0004.17
2022-11-21 01:53:00,,0828.2,4.99,0.00,25.2,23.4,00.0,34.3,26.9,06.3,0000.0,0007.70,0004.54,0004.23
2022-11-21 01:54:00,,0828.2,5.02,0.00,25.1,23.4,00.0,34.2,26.9,06.3,0000.0,0007.77,0004.61,0004.29
2022-11-21 01:55:00,,0828.3,4.98,0.00,25.1,23.4,00.0,34.2,26.8,06.4,0000.0,0007.78,0004.63,0004.32
2022-11-21 01:56:00,,0828.3,5.00,0.00,25.1,23.4,00.0,34.2,26.8,06.4,0000.0,0007.76,0004.65,0004.35
2022-11-21 01:57:00,,0828.3,5.01,0.00,25.1,23.4,00.0,34.2,26.8,06.4,0000.0,0007.55,0004.64,0004.38
2022-11-21 01:58:00,,0828.3,5.00,0.00,25.1,23.4,00.0,34.2,26.8,06.4,0000.0,0007.33,0004.71,0004.44
2022-11-21 01:59:00,,0828.2,4.99,0.00,25.1,23.4,00.0,34.1,26.8,06.4,0000.0,0007.49,0004.81,0004.52
